NIMIQ 5 (35873 NORAD) Tracking and Keplerian Element Data

This shows tracking and keplerian element data for the satellite.

Feedback or suggestion? Click here.




ElementValue
Catalog35873
NameNIMIQ 5
Epoch Orbit5634
Epoch Day34.78430291
Epoch Year2025
RAAN208.2924
Inclination0.0056
Eccentricity0.0002697
Argument of Perigee100.3376
Mean Anonmoly35.1906
Mean Motion1.00270969
Decay Rate-2.52E-06
L11 35873U 09050A 25034.78430291 -.00000252 00000+0 00000+0 0 9996
L22 35873 0.0056 208.2924 0002697 100.3376 35.1906 1.00270969 56346



Live tracking and technical data element details for NIMIQ 5 (NORAD 35873). NIMIQ 5 can be tracked NOW for your location showing map with azimuth and elevation plus other details from your city location.







IsCatalogInMostPopularTable: catalog: 35873, numindb: 342
Update: records affected: 1



GetName: 35873 NIMIQ 5

Hit Count: updated at: Sat, 24 May 2025 15:12:45 GMT